FW1206 Victoria CA current weather conditions

sailwx.info

Wind from 213

Air temperature 9.4° C
Dewpoint 8.7° C

Last reported at 2020-Jun-03 08:02 UTC.
Time now 2020-Jun-03 08:56 UTC

Location: N 48°27' W 123°21'.
View on Google Maps.

See reports from other nearby stations

  
Tides and Currents Weather Stations Pressure Air Temp Water Temp Dewpoint Dewpoint Depression Visibility Wind Speed Wind Dir Waves Ship Positions
date/time (UTC)wind fromknots sea level pressurealtimeterstation pressurevisibilityair tempwater tempwave heightnotes
2020-Jun-03 08:02 213 9.4
2020-Jun-03 07:46 210 9.4
2020-Jun-03 07:31 136 9.4
2020-Jun-03 07:16 210 9.4
2020-Jun-03 07:01 143 10.0
2020-Jun-03 06:46 188 10.0
2020-Jun-03 06:31 153 10.0
2020-Jun-03 06:16 169 10.0
2020-Jun-03 06:01 221 10.6
2020-Jun-03 05:45 125 10.0
2020-Jun-03 05:31 145 10.6
2020-Jun-03 05:16 212 10.6
2020-Jun-03 05:01 198 10.6
2020-Jun-03 04:46 117 10.6
2020-Jun-03 04:30 209 11.1
2020-Jun-03 04:15 219 11.1
2020-Jun-03 04:00 195 11.1
2020-Jun-03 03:46 208 11.1
2020-Jun-03 03:30 147 11.1
2020-Jun-03 03:16 202 11.7
2020-Jun-03 03:00 148 11.7
2020-Jun-03 02:45 177 11.7
2020-Jun-03 02:30 131 11.7
2020-Jun-03 02:15 181 11.7
2020-Jun-03 02:04 120 12.2
2020-Jun-03 01:45 131 12.2
2020-Jun-03 01:30 198 12.2
2020-Jun-03 01:16 169 12.2
2020-Jun-03 01:00 186 12.8
2020-Jun-03 00:45 132 12.8
2020-Jun-03 00:30 293 12.8
2020-Jun-03 00:15 179 12.8
2020-Jun-02 23:15 119 12.2
2020-Jun-02 23:00 109 12.2
2020-Jun-02 22:45 018 11.7
2020-Jun-02 22:30 358 11.1
2020-Jun-02 22:15 075 11.1
2020-Jun-02 22:00 129 11.7
2020-Jun-02 21:45 233 11.7
2020-Jun-02 21:30 252 11.7
2020-Jun-02 21:15 356 12.2
2020-Jun-02 21:00 288 12.2
2020-Jun-02 20:45 257 12.8
2020-Jun-02 20:30 236 12.8
2020-Jun-02 20:15 236 12.2
2020-Jun-02 20:00 283 12.2
2020-Jun-02 19:45 181 12.8
2020-Jun-02 19:30 191 12.8
2020-Jun-02 19:15 306 12.8
2020-Jun-02 19:00 300 12.2
2020-Jun-02 18:45 219 12.2
2020-Jun-02 18:30 355 11.7
2020-Jun-02 18:15 255 11.1
2020-Jun-02 18:00 214 11.1
2020-Jun-02 17:45 150 11.1
2020-Jun-02 17:33 178 11.1
2020-Jun-02 17:16 152 11.1
2020-Jun-02 17:02 139 0 gusting 4 11.1
2020-Jun-02 16:47 153 1 gusting 5 11.7
2020-Jun-02 16:31 205 1 gusting 5 12.2
2020-Jun-02 16:16 196 1 gusting 6 12.2
2020-Jun-02 16:01 134 0 gusting 4 12.2
2020-Jun-02 15:46 158 1 gusting 6 11.7
2020-Jun-02 15:31 195 2 gusting 6 11.7
2020-Jun-02 15:16 205 0 gusting 6 10.6
2020-Jun-02 15:01 213 0 gusting 4 10.6
2020-Jun-02 14:46 227 0 gusting 3 10.0
2020-Jun-02 14:31 176 0 gusting 5 10.0
2020-Jun-02 14:16 212 0 gusting 5 10.0
2020-Jun-02 14:01 300 10.0
2020-Jun-02 13:46 232 10.0
2020-Jun-02 13:32 193 9.4
2020-Jun-02 13:15 228 8.9
2020-Jun-02 13:00 217 8.9
2020-Jun-02 12:45 224 8.9
2020-Jun-02 12:30 212 0 gusting 5 9.4
2020-Jun-02 12:16 184 9.4
2020-Jun-02 12:00 213 9.4
2020-Jun-02 11:47 195 0 gusting 6 9.4
2020-Jun-02 11:30 200 9.4
2020-Jun-02 11:15 191 9.4
2020-Jun-02 11:00 187 9.4
2020-Jun-02 10:45 198 0 gusting 2 8.9
2020-Jun-02 10:30 163 8.9
2020-Jun-02 10:15 150 8.9
2020-Jun-02 10:00 186 8.9
2020-Jun-02 09:45 169 8.9
2020-Jun-02 09:15 130 8.9
2020-Jun-02 09:00 148 8.9
2020-Jun-02 08:45 135 9.4
2020-Jun-02 08:30 225 9.4
2020-Jun-02 08:15 222 10.0
2020-Jun-02 08:00 216 10.0
2020-Jun-02 07:47 215 10.0
2020-Jun-02 07:32 160 10.0
2020-Jun-02 07:18 227 10.0
2020-Jun-02 07:01 231 10.0
2020-Jun-02 06:46 211 10.6
2020-Jun-02 06:32 217 10.6
2020-Jun-02 06:17 215 10.6
2020-Jun-02 06:01 212 11.1
2020-Jun-02 05:46 233 11.1
2020-Jun-02 05:32 214 11.7
2020-Jun-02 05:17 214 11.7
2020-Jun-02 05:01 160 0 gusting 6 11.7
2020-Jun-02 04:46 184 0 gusting 5 12.2
2020-Jun-02 04:30 233 12.2
2020-Jun-02 04:15 234 0 gusting 4 12.8
2020-Jun-02 04:01 127 1 gusting 8 13.3
2020-Jun-02 03:46 172 0 gusting 6 13.9
2020-Jun-02 03:30 127 0 gusting 6 14.4
2020-Jun-02 03:00 206 0 gusting 6 15.6
2020-Jun-02 02:45 191 0 gusting 6 16.7
2020-Jun-02 02:30 333 0 gusting 6 16.7
2020-Jun-02 02:15 227 0 gusting 5 17.2
2020-Jun-02 02:01 209 2 gusting 10 17.2
2020-Jun-02 01:46 196 0 gusting 10 17.2
2020-Jun-02 01:30 265 2 gusting 7 17.2
2020-Jun-02 01:15 226 0 gusting 8 17.2
2020-Jun-02 01:01 195 1 gusting 6 17.2
2020-Jun-02 00:46 234 1 gusting 9 17.2
2020-Jun-02 00:31 201 3 gusting 8 16.7
2020-Jun-02 00:15 153 1 gusting 6 17.2
2020-Jun-02 00:00 207 1 gusting 7 17.8
2020-Jun-01 23:45 113 2 gusting 11 17.8
2020-Jun-01 23:30 210 1 gusting 9 17.2
2020-Jun-01 23:15 210 1 gusting 7 17.8
2020-Jun-01 23:01 136 0 gusting 9 17.8
2020-Jun-01 22:45 223 4 gusting 9 18.3
2020-Jun-01 22:30 139 1 gusting 6 18.3
2020-Jun-01 22:15 160 1 gusting 6 17.8
2020-Jun-01 22:01 117 2 gusting 6 17.8
2020-Jun-01 21:45 185 3 gusting 7 17.2
2020-Jun-01 21:30 146 0 gusting 7 17.2
2020-Jun-01 21:15 188 1 gusting 6 17.2
2020-Jun-01 21:00 214 17.8
2020-Jun-01 20:45 197 0 gusting 4 18.3
2020-Jun-01 20:30 238 17.8
2020-Jun-01 20:15 238 0 gusting 5 17.2
2020-Jun-01 20:00 195 1 gusting 5 17.2
2020-Jun-01 19:45 227 1 gusting 5 16.7
2020-Jun-01 19:16 193 0 gusting 4 15.6
2020-Jun-01 19:01 169 0 gusting 3 16.1
2020-Jun-01 18:47 031 15.6
2020-Jun-01 18:32 004 15.6
2020-Jun-01 18:17 132 15.0
2020-Jun-01 18:01 257 15.0
2020-Jun-01 17:47 347 0 gusting 5 15.0
2020-Jun-01 17:31 028 0 gusting 5 15.0
2020-Jun-01 17:16 090 13.3
2020-Jun-01 17:01 320 0 gusting 3 13.9
2020-Jun-01 16:45 281 0 gusting 5 13.9
2020-Jun-01 16:31 356 13.9
2020-Jun-01 16:16 312 0 gusting 3 13.9
2020-Jun-01 16:02 219 14.4
2020-Jun-01 15:46 297 13.3
2020-Jun-01 15:30 268 13.3
2020-Jun-01 15:15 244 13.3
2020-Jun-01 15:00 192 12.8
2020-Jun-01 14:45 248 11.7
2020-Jun-01 14:30 247 11.1
2020-Jun-01 13:30 267 7.8
2020-Jun-01 13:15 267 7.2
2020-Jun-01 13:00 267 6.7
2020-Jun-01 12:45 267 6.7
2020-Jun-01 12:30 267 6.1
2020-Jun-01 12:15 267 6.7
2020-Jun-01 12:00 267 6.7
2020-Jun-01 11:46 267 6.7
2020-Jun-01 11:32 244 7.2
2020-Jun-01 11:17 230 7.2
2020-Jun-01 11:02 232 7.2
2020-Jun-01 10:46 230 7.2
2020-Jun-01 10:30 230 7.8
2020-Jun-01 10:16 229 7.8
2020-Jun-01 10:00 252 7.8
2020-Jun-01 09:46 229 7.8
2020-Jun-01 09:31 238 7.8
2020-Jun-01 09:16 220 8.3
2020-Jun-01 09:00 264 8.3
2020-Jun-01 08:45 264 8.3
2020-Jun-01 08:31 264 8.3
2020-Jun-01 08:16 256 8.9
2020-Jun-01 08:00 205 8.9